Theta_e
305 305 306 306 306 308 309 310 310 311 311 311 311 311 310 311 310 310 310 310 309 309 309 308 308 308 308 308 309 308 309 309 309 309 310 311 312 319 322 320 322 323 321 319 319 317 316 315 316 331 342 341 341 344 347 349 351 353 360 362 360 362 364 362 360 358 360 358 357 357 353 356 357 355 354 352 354 354 353 351 350 351 350 352 353 352 351 351
305 305 306 306 306 307 308 310 310 311 311 310 311 311 310 310 310 311 310 310 310 309 309 308 308 308 308 309 308 308 309 309 310 310 311 312 312 318 323 320 321 322 320 318 318 316 316 315 316 334 342 340 341 343 346 347 350 355 360 363 360 364 363 357 358 355 356 357 356 355 354 355 356 355 354 355 356 354 354 352 350 350 350 352 352 351 350 351
305 305 305 306 306 306 307 310 311 311 311 311 311 310 310 310 311 310 310 310 310 309 309 309 308 308 309 308 308 309 309 310 315 317 319 318 315 317 322 322 320 321 320 317 316 317 317 316 324 338 340 336 341 343 345 345 348 353 356 362 361 359 360 354 355 355 355 356 357 355 354 354 354 354 355 356 356 354 354 352 350 351 350 351 351 351 351 351
305 305 305 305 306 306 307 309 311 311 311 311 311 311 311 310 310 310 311 310 310 310 309 309 309 308 308 308 309 309 310 320 328 329 328 324 321 319 320 323 322 321 320 317 316 318 320 322 331 340 338 335 339 341 344 344 346 350 350 357 356 352 357 357 355 355 354 356 358 356 354 355 353 352 355 356 357 355 353 351 351 351 350 350 352 351 351 351
304 304 305 305 306 306 306 308 310 311 311 311 310 310 310 311 311 311 311 310 310 310 310 309 308 308 308 308 311 310 313 327 333 331 327 323 323 322 320 321 322 322 321 318 316 322 326 326 330 335 336 336 338 341 343 344 343 346 348 349 350 350 358 358 354 355 355 355 356 356 356 355 353 353 354 356 358 357 352 352 351 349 350 350 350 351 351 349
304 304 305 305 305 306 306 307 309 311 311 311 311 310 311 310 311 311 311 310 310 310 309 309 308 308 307 309 312 311 317 327 329 327 325 321 320 321 321 319 320 322 321 319 317 324 331 329 327 329 335 337 338 342 342 343 342 343 343 344 347 349 357 358 354 355 354 356 357 356 355 353 355 356 355 355 355 353 353 352 351 349 349 350 350 350 350 349
304 304 304 305 306 306 306 306 308 311 312 311 311 311 311 311 311 311 310 310 310 309 309 308 308 308 308 311 313 314 318 323 324 326 324 322 321 321 322 319 318 320 322 319 316 326 333 330 327 328 334 338 340 341 341 342 341 341 340 341 345 347 354 356 353 354 354 355 356 354 353 354 358 358 355 355 354 351 353 353 351 348 349 349 350 350 349 348
305 305 305 305 305 306 306 306 307 310 312 311 312 311 311 311 311 310 309 309 309 308 308 308 308 307 310 312 314 318 322 323 324 324 322 322 322 320 321 320 317 318 321 319 318 328 332 328 327 329 332 338 341 341 342 340 338 339 339 340 346 349 353 352 351 354 355 356 353 353 354 355 356 357 355 355 354 352 353 352 350 348 348 349 348 348 348 347
306 306 306 305 305 305 306 306 307 309 311 312 312 311 311 311 310 310 309 309 308 308 308 308 308 309 313 313 316 324 325 323 324 322 321 321 322 321 321 320 317 318 321 318 318 326 328 327 330 331 333 338 341 341 340 339 337 336 337 337 343 351 351 351 352 354 357 356 353 352 353 353 352 354 355 354 353 353 353 352 351 348 348 348 348 348 347 347
307 307 307 306 305 306 306 307 307 308 311 312 312 312 311 310 310 309 308 308 308 308 309 309 311 312 314 313 320 331 325 320 324 322 321 320 321 322 320 321 320 319 320 318 318 324 328 331 334 333 333 336 337 338 336 336 336 332 333 330 337 351 351 350 354 355 356 355 353 353 353 353 353 356 358 355 353 353 353 352 350 349 349 348 348 348 347 346
308 308 308 307 306 306 306 307 307 308 310 312 312 312 311 310 309 309 308 308 308 310 311 312 314 314 314 314 320 331 324 318 321 319 320 320 321 322 318 320 321 321 322 318 319 328 334 335 335 333 333 334 335 336 335 333 332 330 330 326 335 350 351 352 356 355 354 355 354 353 354 354 353 356 359 356 354 353 352 352 351 350 349 348 348 348 347 346
308 308 308 308 307 306 306 307 307 308 310 312 313 312 311 310 310 309 308 307 309 312 313 314 315 313 317 318 319 324 321 318 318 317 320 320 321 322 320 320 322 322 322 318 323 333 336 335 333 331 331 332 333 334 332 332 330 329 329 325 334 351 354 352 355 354 352 354 354 352 356 358 355 355 356 354 354 353 352 351 350 350 349 348 348 348 346 345
308 308 308 308 308 306 306 307 307 309 311 312 312 312 311 310 310 309 307 308 310 313 314 315 315 314 319 322 320 321 320 317 318 318 320 319 321 323 323 324 324 324 322 319 327 335 335 334 331 329 329 329 330 332 331 331 330 331 329 325 329 344 353 354 353 353 352 352 352 353 360 361 356 353 352 354 353 352 352 351 350 350 349 348 348 348 347 346
307 307 307 307 307 307 307 307 308 309 311 312 312 312 311 312 311 308 308 308 310 313 314 317 320 319 323 324 320 321 320 318 318 319 319 318 321 322 325 327 326 325 322 320 329 336 334 331 327 327 329 329 331 331 331 331 330 331 329 327 327 329 339 353 354 352 353 353 352 352 360 358 354 353 352 353 353 352 352 351 351 351 349 349 349 348 347 347
306 306 306 307 307 307 307 307 308 310 312 312 313 313 312 314 313 308 309 310 311 313 313 320 325 324 326 326 322 322 319 319 319 319 320 318 319 322 325 326 327 327 323 319 326 333 331 327 327 331 331 331 331 330 331 331 331 331 326 327 329 323 329 345 351 352 352 353 351 350 355 355 353 352 352 353 352 352 352 351 352 352 350 350 349 349 348 347
306 307 307 307 307 307 308 307 308 311 312 313 313 314 313 316 315 310 310 310 312 313 313 320 323 324 328 328 324 323 320 319 319 318 320 318 318 321 323 326 328 328 324 320 324 328 328 328 331 333 333 332 331 330 330 330 332 332 326 324 326 323 325 332 342 352 352 351 352 349 354 357 354 352 352 353 353 352 351 350 352 352 351 350 350 350 349 348
307 308 307 308 308 308 308 308 310 311 313 314 315 315 316 316 317 314 312 313 314 313 314 319 319 322 328 326 322 323 320 318 316 317 318 317 318 319 321 325 329 329 328 325 325 328 330 332 333 333 330 330 329 329 328 327 328 331 328 324 324 325 325 323 332 348 351 349 353 351 353 356 354 352 352 353 353 352 351 350 351 352 351 351 351 350 350 350
309 309 309 309 309 309 309 310 311 313 314 316 315 316 316 315 317 318 317 317 315 316 321 323 322 323 324 321 321 320 318 317 316 317 317 317 318 317 318 322 326 328 329 329 328 330 332 333 332 331 331 329 329 328 327 327 327 327 327 323 322 322 324 324 325 341 351 350 352 351 352 354 353 351 352 353 352 351 350 350 351 352 352 351 351 350 351 350
311 311 311 311 311 311 311 311 312 314 316 317 316 315 315 314 317 318 316 316 316 321 328 325 325 326 322 320 320 316 316 316 316 317 317 318 318 318 318 321 324 327 328 330 330 329 332 332 331 331 331 329 329 328 327 329 328 328 327 323 322 320 322 324 322 335 350 351 351 351 350 353 354 351 351 352 352 350 349 350 350 351 351 351 351 350 351 350
311 312 312 312 312 312 311 313 314 315 316 317 316 316 315 315 316 317 315 315 315 319 321 319 321 324 322 321 318 314 316 316 315 317 317 318 319 319 320 322 324 326 328 329 330 330 331 331 332 331 331 329 328 328 327 329 328 328 328 325 324 322 320 325 323 330 348 351 349 350 350 352 354 352 351 351 352 350 349 349 350 350 350 351 351 350 351 351
312 312 312 312 313 313 313 313 315 316 316 317 316 317 316 315 316 316 315 315 315 315 314 315 316 318 319 319 315 314 315 315 315 316 316 318 319 318 321 324 325 326 327 327 329 330 329 331 332 330 330 328 327 329 328 329 329 328 328 326 324 322 321 324 324 326 339 349 348 348 349 351 352 352 351 351 351 350 349 349 350 350 350 351 350 350 351 351
312 312 313 313 314 314 313 314 316 317 317 317 317 317 316 315 315 315 315 315 315 314 314 315 315 315 317 316 315 315 314 314 315 315 317 319 318 318 320 324 326 328 327 326 328 330 330 330 329 328 328 328 328 329 328 328 329 328 327 324 322 322 322 323 325 324 329 342 348 348 349 349 351 351 350 350 352 351 350 350 350 350 350 350 350 350 350 350
312 313 314 314 314 315 313 313 315 317 317 317 316 316 316 316 316 316 316 315 315 314 314 315 315 316 316 314 315 315 314 314 314 315 317 318 318 318 320 323 326 327 327 328 328 328 328 328 328 327 327 328 329 328 328 328 327 327 326 323 321 322 321 320 322 325 324 332 345 349 348 350 350 351 351 350 351 351 350 349 350 350 349 350 351 350 350 350
314 314 315 315 315 315 314 314 315 316 316 316 316 316 316 316 316 315 315 314 315 314 314 315 316 316 316 315 314 314 314 313 314 317 318 319 319 319 321 322 323 324 325 327 328 327 328 327 326 326 327 328 329 328 329 327 326 325 324 322 321 322 322 320 322 325 322 326 341 349 347 349 352 352 352 351 350 351 351 350 351 350 350 350 351 350 350 350
315 315 315 315 315 315 315 314 315 316 316 317 316 316 316 316 316 315 314 316 317 317 316 316 317 317 315 314 315 314 314 314 315 317 318 318 319 319 319 320 322 325 324 325 326 326 326 326 325 326 327 327 328 329 328 327 325 322 322 323 323 322 323 323 324 323 321 321 334 349 346 346 352 352 352 351 352 352 350 351 352 351 351 351 351 351 350 350
315 315 315 316 315 315 315 315 315 315 316 318 317 317 316 316 316 315 317 319 319 318 317 316 316 316 315 315 315 314 314 316 315 317 317 317 318 317 318 318 320 324 325 324 324 325 325 325 325 325 327 327 327 327 326 326 323 320 324 325 323 324 323 324 323 321 321 321 327 343 348 345 347 349 353 352 351 353 352 351 352 352 351 351 351 350 350 351
315 316 315 316 315 315 315 315 315 314 316 318 317 317 316 316 316 315 320 325 324 319 314 314 315 315 314 315 314 314 316 317 316 317 317 317 317 316 317 319 319 320 322 320 321 324 324 324 325 324 325 327 327 325 326 326 322 321 328 326 325 327 324 325 323 320 322 323 324 332 344 347 346 347 351 352 352 352 352 352 352 352 351 352 352 351 351 351
316 315 315 316 315 314 314 315 315 316 316 318 317 316 315 316 316 315 321 327 324 318 314 313 314 314 314 314 314 314 316 315 315 317 317 317 317 316 318 318 318 317 317 317 318 321 322 322 322 322 323 324 325 326 326 325 323 326 328 325 326 326 325 327 322 321 324 320 320 325 329 334 339 348 351 351 353 351 352 353 351 353 352 351 352 351 352 351
315 315 315 315 315 314 314 315 316 316 316 317 316 315 315 316 316 317 324 325 319 314 314 314 314 315 315 315 315 314 315 315 315 317 317 318 317 316 317 317 316 317 316 317 318 318 319 320 320 320 322 323 325 325 325 325 325 326 327 326 326 325 327 330 324 326 326 318 318 323 321 321 328 345 351 349 351 351 351 352 350 352 353 352 353 352 351 352
314 315 315 315 315 314 313 315 317 317 317 316 315 315 316 317 320 325 326 322 316 314 314 314 314 315 315 315 316 315 314 315 316 317 317 316 317 316 316 317 316 316 317 317 317 317 316 317 319 320 322 324 325 325 324 325 325 325 326 325 325 326 329 336 340 334 323 322 326 324 322 320 320 335 349 348 350 351 350 351 350 352 353 353 353 352 352 352
314 315 315 315 315 314 314 315 316 317 316 315 315 316 317 319 322 328 326 318 315 315 313 315 315 315 315 315 316 316 315 316 315 316 316 316 316 316 316 318 316 318 322 319 316 318 317 316 319 319 321 322 325 326 323 324 325 324 328 325 323 328 330 332 338 330 318 325 336 327 319 318 317 330 347 349 350 350 348 349 350 353 353 353 353 352 352 352
314 315 315 315 316 315 315 315 315 316 316 315 316 316 320 324 325 326 324 316 315 316 314 316 316 316 316 315 316 316 315 317 315 315 316 316 317 316 315 317 315 316 321 319 315 319 319 318 317 317 320 321 323 328 326 327 327 323 329 328 321 324 324 323 327 325 322 327 331 325 318 319 322 331 344 348 348 347 348 347 348 352 353 353 353 352 352 352
315 315 316 316 316 316 316 315 315 315 315 316 316 315 322 329 326 322 318 314 314 316 315 317 316 316 317 316 316 317 316 316 315 315 316 316 317 317 315 315 314 315 318 317 315 318 320 321 319 316 320 320 319 324 324 326 327 322 326 326 322 322 320 320 324 323 323 326 327 323 319 321 324 328 337 346 347 345 345 346 347 350 353 353 353 353 352 352
316 316 317 318 318 317 316 316 315 316 316 315 316 320 325 327 322 318 316 314 315 316 316 316 315 316 317 316 316 316 317 315 315 316 316 316 317 318 316 314 314 315 318 318 317 317 317 321 322 317 317 318 317 320 322 325 326 323 327 328 327 327 323 323 325 322 322 325 326 324 321 322 324 326 335 339 341 344 344 346 346 348 352 353 353 353 352 353
317 317 318 319 320 317 315 316 314 316 317 315 319 324 324 320 317 317 316 315 315 315 315 315 315 316 317 317 315 315 316 315 315 316 315 315 315 315 315 314 313 314 316 319 317 314 315 318 319 315 316 317 316 316 317 322 325 325 326 325 323 327 326 324 326 328 324 322 325 325 324 328 329 331 334 328 330 339 342 345 346 347 352 353 353 353 352 353
319 318 318 318 318 315 315 315 314 316 316 316 323 327 320 315 315 315 315 315 315 315 315 315 315 314 315 317 316 315 316 315 316 315 314 314 314 313 314 313 313 313 315 317 315 313 315 317 316 315 317 317 315 315 315 318 324 326 323 321 324 328 325 321 323 328 322 317 325 326 323 328 329 329 333 326 325 332 338 345 344 344 351 352 352 353 351 352
320 320 318 317 316 315 315 315 315 316 314 318 326 326 317 314 314 314 315 314 314 314 314 315 314 313 313 315 315 314 315 315 315 315 314 315 314 313 312 312 313 312 313 316 316 313 313 315 315 315 317 316 314 316 317 317 321 322 320 322 328 328 325 325 323 324 321 320 325 324 321 326 325 327 337 331 325 328 336 344 344 344 350 351 351 351 351 352
320 321 320 318 316 315 316 316 316 315 315 321 328 322 315 315 313 313 314 313 314 314 314 314 314 313 313 313 313 313 314 315 314 315 315 315 314 312 311 312 313 312 312 314 315 314 313 314 315 315 315 315 314 317 319 318 316 318 318 321 326 323 324 327 322 320 322 321 324 325 325 326 323 328 335 328 324 326 329 339 346 346 348 351 351 350 350 351
321 321 319 317 317 316 316 317 316 315 317 324 327 320 315 314 313 313 313 312 313 314 314 313 313 313 313 312 313 313 313 313 313 314 315 314 314 312 311 312 312 312 314 314 314 315 314 314 315 315 313 314 316 316 316 315 315 316 316 318 322 321 322 325 323 323 324 323 325 326 328 329 329 331 333 329 332 336 334 340 346 346 347 349 350 350 349 350
322 323 319 316 317 316 316 316 315 318 322 322 320 317 315 313 313 313 313 313 313 313 313 313 312 313 313 312 312 312 312 313 312 313 313 312 312 311 311 311 312 312 313 313 313 314 316 316 315 315 314 315 316 315 314 314 314 314 316 316 318 320 321 322 323 324 324 327 327 325 327 332 331 329 333 336 340 341 343 343 342 344 347 349 349 349 349 349
321 324 320 316 316 317 316 317 316 319 322 319 315 315 315 313 313 313 313 313 313 313 313 312 312 312 312 312 312 312 312 312 312 312 312 311 312 312 311 311 312 312 313 314 313 313 316 318 317 316 314 314 315 314 314 315 314 314 315 317 316 318 320 321 325 327 325 327 327 325 327 328 325 325 331 337 341 342 344 344 341 342 346 348 348 348 348 349
321 323 319 315 317 316 316 317 318 318 318 315 314 314 314 314 312 312 312 312 312 312 312 312 312 312 311 312 312 311 312 312 312 312 311 311 312 312 312 312 313 313 313 315 313 313 316 317 316 316 315 314 314 315 315 315 316 316 315 316 315 315 317 319 325 327 322 323 328 328 327 325 324 326 326 330 339 343 343 345 344 343 345 348 348 347 348 349
320 322 319 316 317 316 315 317 319 318 316 313 313 312 313 313 312 312 312 312 312 312 312 312 312 311 312 312 311 312 312 312 312 312 312 312 312 312 312 312 314 314 314 315 314 313 316 316 315 316 316 315 313 315 317 316 315 316 315 314 313 313 314 316 320 324 323 324 328 327 325 325 325 326 323 328 338 342 344 345 344 344 347 347 347 347 347 347
319 320 318 316 316 315 316 316 317 318 316 314 312 312 312 311 311 312 312 311 311 311 311 311 311 312 312 312 312 312 312 313 313 313 313 313 312 312 312 312 313 315 315 316 314 313 315 317 319 320 319 316 315 318 322 317 313 313 313 314 313 313 314 316 319 324 329 328 324 324 327 327 325 324 323 327 337 342 343 344 343 344 346 346 347 347 347 347
319 320 317 315 315 315 315 315 315 316 316 315 314 312 312 312 311 312 311 311 311 311 312 312 312 312 312 312 312 312 312 314 314 314 314 313 313 313 312 312 313 314 315 316 314 314 314 317 322 323 320 318 318 321 321 315 312 312 312 312 312 312 313 315 318 324 330 328 322 322 327 324 321 323 323 327 337 342 341 342 342 342 343 347 348 348 348 349
320 320 317 316 315 314 314 313 313 314 315 319 319 314 312 312 311 311 311 311 311 312 313 313 312 313 312 313 313 312 312 313 313 314 314 313 313 313 312 313 313 314 315 315 313 314 315 317 321 323 320 317 316 316 315 313 311 311 311 311 312 313 312 314 318 322 324 322 322 327 326 320 319 322 322 327 338 341 341 341 341 340 341 343 346 349 350 350
320 319 316 317 316 314 315 313 313 314 315 318 318 314 312 312 311 312 312 312 312 312 312 313 312 313 314 314 314 314 314 314 314 314 314 314 313 313 311 312 313 313 314 313 312 315 317 316 316 317 317 314 313 312 311 311 310 310 311 311 311 313 313 313 315 318 318 318 324 331 327 319 319 321 322 330 339 340 339 340 341 339 337 338 340 343 345 347
319 318 316 316 316 316 316 315 314 314 315 315 315 313 312 312 311 312 312 311 312 312 313 314 313 313 314 314 315 315 316 316 315 315 315 314 313 313 313 314 313 312 312 311 312 314 316 316 314 313 313 312 311 311 310 311 311 310 311 311 311 312 312 312 313 313 315 317 321 326 324 321 321 321 326 335 339 337 336 338 339 339 336 335 336 336 338 339
317 318 316 316 316 315 315 315 313 313 314 317 318 314 312 312 312 312 312 312 313 313 314 315 315 314 315 316 317 316 315 316 316 316 315 314 315 315 315 316 314 312 311 312 312 313 316 319 316 312 312 312 311 312 312 311 311 311 311 311 311 312 311 312 312 312 314 316 317 319 321 322 322 323 330 336 335 333 334 335 336 337 336 334 334 334 335 335
316 317 316 316 317 315 314 314 313 314 314 316 318 315 312 313 313 312 313 313 313 313 314 314 315 315 315 317 318 316 315 315 315 315 313 313 315 315 314 314 314 313 314 313 312 312 315 318 316 312 314 313 312 312 312 312 312 312 312 311 311 311 311 311 311 313 315 315 316 316 318 322 324 326 332 334 331 331 331 331 334 335 335 334 333 333 333 333
316 317 316 318 320 317 314 313 312 315 315 314 316 315 313 314 314 313 315 313 311 312 313 313 314 314 315 318 318 315 314 314 313 312 311 311 312 313 312 312 312 313 315 315 314 313 315 318 317 315 315 314 312 312 312 311 312 312 311 312 311 311 312 311 312 314 314 314 314 313 315 321 327 327 331 332 329 329 329 329 330 333 333 332 332 332 331 331
316 317 316 318 320 316 313 314 315 316 315 313 314 315 314 314 313 313 316 314 311 312 313 312 312 314 316 317 316 313 312 312 312 312 311 311 311 311 311 312 310 311 314 315 315 316 316 317 317 316 315 314 312 312 312 312 313 313 313 312 312 311 311 311 314 316 318 319 319 318 320 327 330 329 333 333 328 327 328 327 328 329 330 330 330 330 329 329
Wind_Speed
18 18 18 19 19 19 19 19 18 17 16 16 15 15 15 14 14 14 14 13 12 12 11 10 11 12 12 12 11 10 10 9 10 11 11 8 12 14 16 17 15 13 13 16 16 15 15 14 15 17 15 12 12 14 15 14 15 10 2 2 2 2 3 3 2 4 6 6 5 6 8 6 5 7 8 9 8 8 6 9 16 13 16 25 30 40 41 40
18 18 18 18 19 19 19 19 18 17 17 17 16 16 16 16 15 15 15 13 12 12 11 11 11 12 12 12 12 10 10 9 9 9 7 6 13 16 18 20 19 16 13 15 17 17 17 16 16 18 16 11 11 12 11 11 14 9 2 2 3 3 4 2 6 7 9 9 8 8 8 8 6 7 9 6 7 9 7 10 16 18 23 28 36 41 40 41
18 18 18 18 18 18 19 19 18 17 17 17 17 17 17 16 16 15 15 13 12 12 12 11 12 12 11 12 12 11 10 8 6 3 1 2 8 14 17 19 20 19 15 13 16 17 15 13 16 19 15 11 12 12 10 10 12 11 6 2 4 6 3 5 13 11 16 18 10 8 8 8 8 9 9 5 8 9 8 12 15 22 31 35 40 41 41 40
19 19 19 18 18 18 18 18 18 18 17 17 17 17 17 17 17 16 15 13 12 12 12 12 12 11 11 11 11 11 9 5 2 4 5 6 4 7 12 16 19 20 17 14 14 16 14 11 14 17 13 10 14 13 11 12 10 10 10 6 4 7 4 7 17 17 23 24 15 13 8 5 9 11 10 10 10 6 10 17 19 30 39 39 42 41 41 39
19 19 19 19 18 18 18 18 18 18 18 17 17 17 17 17 17 16 15 13 12 12 12 12 11 10 11 10 10 9 5 3 3 7 5 5 4 3 8 13 17 18 19 17 16 17 16 14 13 14 12 9 11 10 11 18 14 6 11 13 7 7 6 10 20 19 23 26 21 17 10 8 11 10 12 12 8 6 16 21 24 38 42 42 45 42 41 40
20 19 19 19 18 18 18 18 18 18 18 18 18 17 17 18 17 16 14 13 12 12 12 11 10 9 9 9 10 7 1 1 3 5 4 4 4 2 6 13 17 17 19 19 19 19 19 17 12 11 11 8 8 9 11 17 15 7 9 13 13 13 8 13 22 20 22 25 20 17 16 15 10 8 14 15 11 10 15 20 28 38 40 42 44 42 43 40
21 20 19 19 18 18 17 18 18 18 19 19 18 18 18 18 17 16 14 12 11 11 11 9 9 8 8 9 8 5 2 1 3 5 2 2 3 1 4 12 17 18 20 22 23 23 21 17 13 12 9 7 8 10 12 14 14 10 8 8 16 21 13 17 22 22 24 23 21 22 20 16 11 9 13 17 17 13 12 20 32 37 39 40 39 41 41 39
21 21 20 19 18 18 18 18 18 19 19 18 18 18 18 17 16 15 13 11 10 9 9 8 8 8 8 7 6 5 3 1 3 4 3 3 4 1 4 10 17 19 21 23 25 25 21 18 16 13 7 7 8 8 11 11 11 10 10 11 12 16 17 22 22 21 23 20 23 24 17 16 16 11 12 16 16 14 17 26 35 37 39 39 38 40 38 38
22 21 21 20 19 19 18 18 19 19 19 18 18 18 19 17 15 14 12 10 9 8 8 9 9 8 7 4 3 2 2 4 3 2 4 6 5 1 5 8 14 18 21 23 26 25 21 19 20 16 8 11 12 9 10 6 6 8 9 12 8 13 19 23 21 20 20 20 23 18 11 16 16 9 9 15 14 17 22 28 35 37 39 38 36 39 37 38
22 21 21 20 20 19 18 19 19 19 19 18 18 18 18 16 14 12 10 9 8 8 8 8 8 7 6 2 0 1 4 4 2 1 5 6 6 3 7 9 11 16 21 24 26 26 24 20 20 17 10 12 11 10 11 6 7 12 10 11 6 19 24 22 20 20 20 20 21 14 8 13 14 6 5 12 16 20 24 30 35 34 38 38 34 38 37 37
23 22 21 20 20 19 18 19 19 19 19 18 17 17 17 14 13 11 8 8 8 8 7 8 8 6 3 2 5 4 4 3 0 5 7 6 5 3 7 11 11 14 20 24 28 27 25 21 16 10 7 8 8 10 13 8 10 16 12 11 4 20 21 18 18 19 17 14 18 13 7 7 9 3 4 14 21 25 30 34 35 32 35 37 33 38 38 36
22 22 21 20 20 18 18 18 19 19 19 18 17 17 15 12 11 10 7 7 7 7 6 7 6 3 3 4 7 4 3 2 0 5 5 4 2 3 2 7 10 14 19 25 28 28 25 18 12 10 9 8 7 6 10 11 14 16 10 6 2 11 12 17 18 19 16 10 19 16 7 2 4 6 8 19 26 29 32 34 35 31 34 37 32 36 39 37
22 21 21 20 20 19 18 17 18 19 19 18 16 16 13 9 9 9 6 6 6 6 5 5 4 3 4 5 4 3 2 1 3 3 6 5 2 2 2 3 5 8 16 25 27 27 23 13 10 14 16 13 9 7 13 15 14 13 7 3 3 6 7 15 16 19 13 12 27 18 4 5 5 10 12 21 30 30 30 32 33 29 33 38 32 35 39 38
21 20 20 19 19 19 18 17 17 18 18 17 15 14 11 8 8 8 6 5 6 5 3 4 4 4 6 4 2 3 1 3 5 4 6 7 6 4 1 2 2 3 10 22 27 24 22 13 13 18 19 16 10 10 12 10 7 6 4 4 2 4 5 12 15 16 9 13 30 16 2 7 7 12 16 25 30 30 32 33 33 30 33 37 31 35 38 38
21 20 20 19 19 19 18 17 17 18 18 16 13 11 9 9 9 7 5 4 5 4 2 3 4 6 8 5 3 3 2 3 4 3 5 5 5 7 5 3 3 2 5 18 25 23 19 14 15 17 16 13 8 7 5 4 3 2 1 4 2 2 4 9 15 17 9 12 25 11 1 6 7 13 21 29 30 28 31 33 33 31 33 35 31 33 36 38
21 20 19 19 19 18 18 17 17 18 16 13 12 10 9 10 8 5 4 4 4 3 1 3 4 4 6 4 4 4 3 4 3 1 6 5 5 9 6 5 5 5 5 13 20 17 12 12 14 15 13 8 4 2 3 5 4 2 2 3 3 2 3 4 11 20 16 12 17 11 2 3 5 13 23 31 30 27 28 27 31 32 32 34 32 31 35 37
21 20 19 19 19 18 17 16 17 17 14 11 11 10 8 8 7 4 4 5 6 4 4 5 6 6 4 2 2 3 3 4 2 2 8 6 7 10 7 8 9 8 8 9 13 12 9 9 9 8 7 3 1 2 1 3 3 4 1 3 3 3 4 3 6 17 19 14 14 13 6 4 6 15 23 29 30 28 27 25 30 33 32 34 32 31 34 37
21 20 19 19 18 18 17 15 16 14 11 11 11 11 8 7 6 2 2 7 8 5 4 5 5 4 2 2 2 1 3 4 1 1 7 5 6 9 7 9 10 10 10 8 10 12 10 7 3 1 2 3 2 3 3 4 4 3 4 3 3 3 4 6 3 9 17 14 14 13 8 5 8 16 22 28 29 28 27 26 30 33 31 33 33 33 34 37
22 21 20 19 18 17 16 14 13 10 11 13 12 10 7 8 5 2 5 11 8 4 2 5 6 2 4 7 8 3 3 4 2 1 6 3 4 9 7 6 10 14 11 6 7 10 8 3 2 2 2 5 5 4 5 4 5 5 5 3 3 5 5 8 5 8 18 13 12 14 9 7 12 15 19 26 28 27 27 26 29 31 31 32 33 34 36 38
23 22 21 20 18 16 14 11 9 9 11 13 15 13 10 10 6 3 14 17 11 7 8 9 10 13 15 13 10 6 3 4 6 6 4 3 5 8 7 6 9 13 8 4 5 9 9 3 3 5 4 6 6 5 7 6 7 6 5 5 5 7 7 8 7 6 18 14 12 16 11 11 16 15 18 26 28 24 24 25 28 30 31 34 33 33 37 39
24 23 22 21 19 16 12 7 6 9 10 12 15 14 11 11 5 6 16 18 13 10 13 14 15 19 18 15 13 9 6 5 7 7 4 7 8 6 8 7 5 6 6 7 6 6 8 5 5 7 6 7 7 7 7 8 10 8 5 5 7 7 8 11 10 5 13 13 11 15 13 13 17 16 18 25 23 19 24 26 27 30 31 35 35 33 37 39
24 24 23 22 19 16 11 5 4 7 9 11 13 11 8 8 5 7 12 13 15 12 13 15 16 18 16 15 13 8 6 5 5 6 6 11 11 7 8 7 3 3 5 7 5 3 5 5 7 9 8 7 7 7 8 9 10 8 5 5 6 6 7 10 9 3 6 8 9 15 14 13 16 16 18 22 21 21 29 30 31 33 32 34 37 35 37 37
24 23 23 22 19 16 10 5 4 5 7 10 14 13 10 7 7 13 12 9 14 15 13 13 14 15 13 9 8 7 5 3 4 7 8 11 11 9 8 7 4 4 4 5 5 4 3 5 10 12 9 9 9 9 9 7 7 6 5 5 7 8 5 6 4 3 2 4 10 16 10 7 9 11 14 21 25 24 29 32 32 35 35 37 40 39 38 38
23 23 22 21 20 16 10 5 4 5 5 8 13 13 11 10 11 16 13 4 7 12 10 10 11 11 10 7 6 5 2 3 4 5 9 8 8 7 5 6 5 4 5 7 8 6 5 9 13 12 8 9 9 9 9 6 5 6 7 7 7 9 8 7 5 5 7 5 7 12 4 1 6 10 11 15 19 20 25 28 27 31 34 37 40 39 40 41
23 22 22 21 19 16 11 5 5 5 3 5 9 7 8 11 12 15 10 1 3 6 5 7 9 8 6 6 7 3 0 4 4 6 9 5 7 5 1 3 4 4 6 8 8 5 6 14 13 8 8 10 8 8 9 7 5 6 7 10 11 12 12 10 8 5 5 5 3 11 5 3 5 10 10 9 11 14 19 21 22 27 30 31 36 38 39 41
22 21 21 20 19 17 11 4 4 5 1 3 5 4 6 8 8 12 7 2 2 3 2 4 7 6 5 5 5 2 2 3 1 6 8 4 4 3 1 1 1 3 5 5 5 3 6 14 12 8 10 11 9 8 9 8 5 5 7 9 11 10 10 10 7 4 1 1 1 7 7 2 3 7 10 10 12 13 14 16 19 27 29 30 35 38 39 41
21 20 20 19 18 17 11 6 5 4 1 2 5 6 8 6 6 9 4 3 3 2 3 3 4 3 3 5 5 5 1 3 1 6 8 4 1 2 1 3 2 2 2 2 2 3 4 9 10 8 9 9 8 8 9 8 6 5 7 7 7 7 7 8 5 4 4 2 1 1 5 4 3 9 11 11 12 11 12 13 17 25 31 33 36 39 41 42
20 19 19 17 15 15 12 7 4 3 3 3 6 8 7 4 5 6 2 3 2 1 2 1 3 2 3 4 4 5 3 3 1 2 5 2 1 2 2 3 3 3 3 2 1 5 2 2 4 5 5 5 7 9 11 9 6 6 9 7 6 6 6 4 3 4 3 1 3 3 4 4 3 7 9 9 10 12 15 17 17 23 31 34 36 40 42 43
20 18 19 17 12 11 10 5 3 2 3 4 5 5 5 3 4 3 3 3 1 1 0 2 3 3 3 2 3 6 4 3 2 4 6 4 3 4 2 5 4 2 4 2 3 6 3 4 6 3 3 4 6 11 13 9 6 7 9 9 4 3 4 2 2 1 2 0 4 5 3 4 3 4 7 9 10 13 16 16 18 25 32 35 37 40 42 42
18 16 18 15 9 8 7 2 2 3 4 6 4 3 4 4 2 3 2 2 2 0 1 3 2 2 4 1 2 5 4 4 5 7 6 4 5 4 3 5 3 1 2 2 3 6 5 7 10 4 4 5 4 8 11 11 9 6 5 8 5 3 3 3 3 3 3 3 5 6 4 5 1 4 7 10 13 17 17 13 15 21 29 34 36 38 41 42
16 14 14 9 5 5 5 2 4 4 7 7 6 5 5 3 2 3 2 1 0 1 1 2 1 1 4 2 2 4 2 1 3 5 2 1 1 2 4 3 3 3 4 4 4 6 4 1 4 5 6 7 4 3 4 7 7 4 1 2 3 4 4 4 5 3 1 5 6 5 1 5 2 4 7 13 19 21 17 13 15 18 26 34 36 38 40 42
14 11 6 3 6 7 7 4 3 4 4 4 7 8 4 3 2 1 1 4 2 1 2 2 2 1 2 1 1 3 2 1 2 3 1 1 3 5 6 4 2 2 3 3 3 6 5 1 2 6 6 5 4 3 4 4 1 3 3 4 1 2 2 1 3 1 3 5 6 3 4 3 4 5 9 15 17 16 15 15 18 23 29 34 37 39 40 42
12 6 2 4 6 6 8 7 2 1 1 4 8 7 3 4 2 1 2 4 1 1 2 2 2 1 3 3 2 1 2 2 2 2 2 3 5 5 8 8 6 2 1 1 3 5 5 4 5 2 2 10 9 2 2 3 1 2 3 4 3 2 1 2 2 1 3 5 7 2 4 1 4 5 10 15 16 18 21 24 26 29 34 38 40 41 41 42
9 3 4 4 5 4 6 7 6 5 5 8 9 5 4 5 2 2 3 3 2 4 5 5 6 3 3 3 1 2 4 3 2 3 4 6 5 4 7 11 11 4 1 3 3 2 2 3 5 4 3 9 10 5 2 3 1 2 4 6 4 4 4 3 2 2 3 4 6 3 2 2 3 4 9 16 21 24 27 31 31 32 36 40 39 38 38 40
9 3 2 7 5 3 5 6 6 6 7 10 7 3 5 3 2 3 3 4 3 5 8 9 6 2 2 2 1 2 4 1 2 5 7 8 6 5 6 7 11 7 2 4 2 2 2 4 3 4 6 5 8 10 8 3 2 3 1 5 3 4 5 2 3 5 3 1 4 3 1 4 5 6 7 10 17 22 27 32 31 30 33 34 32 33 37 39
9 5 6 9 5 5 7 6 5 5 7 8 5 4 4 2 2 3 3 4 3 4 7 8 6 3 3 3 2 3 4 2 2 4 6 7 8 8 6 5 9 9 4 3 1 2 3 4 5 7 5 5 13 14 7 5 3 2 2 2 5 4 6 2 3 2 3 2 3 2 2 4 4 6 9 5 7 12 19 23 24 29 32 32 33 36 39 40
7 6 8 9 7 9 9 6 6 5 5 5 5 4 2 1 3 3 4 6 5 5 5 5 5 4 4 4 4 5 5 3 3 3 2 4 6 8 6 5 11 11 6 3 2 1 0 4 5 6 3 10 23 18 6 11 9 3 2 5 4 2 3 3 0 2 2 2 3 2 2 4 3 4 7 8 9 9 11 15 19 25 29 31 35 40 42 43
9 6 8 9 8 10 9 6 6 4 4 4 4 4 2 2 4 4 6 8 6 5 5 3 3 4 5 4 4 6 6 3 2 3 3 3 4 7 6 5 10 14 13 9 3 1 2 3 4 5 5 11 20 13 6 13 15 7 4 6 2 2 1 1 1 1 0 1 3 3 2 2 3 4 6 7 9 8 5 9 14 15 22 30 35 40 44 44
10 6 8 9 7 8 8 7 5 3 3 3 3 3 1 3 8 12 14 11 5 4 4 2 3 4 6 5 3 6 8 6 4 3 4 3 2 7 10 6 7 13 16 14 5 3 3 2 4 3 7 7 8 7 4 9 13 11 9 8 4 1 3 1 2 3 2 2 2 2 3 2 3 4 8 9 8 11 11 7 11 14 22 32 35 38 41 41
9 4 5 6 5 5 6 6 5 2 2 3 2 2 3 4 10 19 24 17 6 4 4 3 5 4 4 7 6 6 6 7 7 5 5 4 3 6 12 10 7 9 12 14 10 4 4 4 3 5 7 4 2 5 5 5 8 8 8 8 7 4 1 1 1 2 4 3 3 1 2 2 3 6 9 13 13 13 15 10 9 17 24 33 38 39 40 41
9 4 2 4 4 6 7 6 4 1 2 2 2 4 5 6 9 16 25 22 11 8 8 6 6 5 4 6 6 5 4 6 8 7 5 6 5 4 11 13 9 7 7 9 9 5 3 2 3 5 6 3 2 3 6 6 4 2 5 6 6 6 4 2 2 3 1 3 5 4 3 1 3 6 8 10 11 13 18 18 8 17 29 35 37 39 41 43
9 3 3 5 5 8 8 5 3 1 2 4 7 8 8 8 9 12 18 20 14 10 10 7 5 5 5 4 5 5 4 5 7 6 6 8 8 5 10 17 15 9 5 3 3 6 4 1 3 4 5 6 5 4 4 5 3 6 7 7 6 6 5 2 2 4 3 2 1 3 3 3 1 7 10 10 11 16 24 25 17 7 21 35 39 39 42 45
10 5 10 13 7 7 8 4 4 4 3 9 13 14 12 9 8 9 12 14 10 8 8 7 5 7 7 6 6 6 5 5 6 6 6 6 9 10 15 20 15 9 6 2 3 8 6 2 4 5 6 6 4 4 3 9 8 6 6 8 7 6 6 3 4 3 2 3 4 2 3 3 4 9 13 14 15 19 26 29 28 22 10 14 31 37 40 44
11 8 15 18 10 9 9 4 3 5 4 8 11 10 11 10 9 8 8 9 8 5 4 5 7 8 7 7 9 8 6 4 5 7 5 3 6 13 20 21 15 9 7 4 3 6 4 2 3 4 6 7 3 3 5 8 8 5 4 7 8 9 11 7 3 1 2 1 3 1 4 3 7 9 13 15 15 16 22 30 32 31 30 15 13 29 34 40
11 7 13 19 20 19 13 5 5 4 2 5 7 6 6 6 11 13 10 10 13 9 5 6 10 11 8 8 10 9 8 6 3 4 5 3 4 10 18 19 15 11 9 10 9 5 2 2 3 3 1 5 3 3 4 6 6 5 5 7 9 11 13 8 3 3 2 2 5 1 2 6 10 11 13 13 11 13 18 29 35 34 37 32 9 10 13 15
8 4 7 12 20 24 19 15 14 7 2 3 4 5 5 3 8 16 14 11 14 15 11 8 11 11 8 8 8 8 8 6 4 3 3 4 2 6 15 17 15 14 12 14 15 7 3 3 2 5 4 5 5 5 5 6 7 6 7 8 8 9 10 7 3 2 1 4 5 3 1 8 12 13 14 11 9 11 14 22 29 33 38 39 29 22 21 17
5 3 5 5 9 16 16 17 18 10 6 7 3 4 9 7 6 12 12 9 13 15 11 9 11 8 6 7 5 4 6 5 6 5 3 3 2 2 11 14 14 16 13 13 14 7 3 3 1 3 4 5 6 7 8 9 9 8 8 8 6 7 9 7 5 4 3 4 5 5 3 8 10 11 11 9 8 9 12 16 21 28 33 35 35 35 33 28
5 3 8 6 2 6 8 11 15 13 11 10 6 5 10 11 7 7 8 10 13 14 8 6 9 8 7 7 3 3 6 5 6 6 4 4 2 2 7 8 10 15 14 12 11 6 4 1 2 1 3 6 6 8 9 9 9 9 8 6 5 6 7 7 8 8 5 3 6 8 7 6 8 10 9 10 10 10 13 16 16 21 29 32 34 37 36 34
7 5 10 10 6 7 10 13 17 15 11 8 5 6 8 9 8 6 6 6 7 10 8 4 5 7 8 7 5 4 5 4 4 6 5 7 7 5 5 5 6 12 12 8 7 5 3 1 4 4 5 5 7 9 9 10 11 12 10 7 5 6 7 8 9 9 8 7 8 7 7 4 5 7 9 11 13 14 17 20 20 19 23 28 32 33 33 34
11 7 8 9 9 11 15 16 14 10 8 7 5 5 6 8 7 6 6 5 3 4 7 5 4 6 6 6 6 5 3 4 3 3 4 5 5 4 2 2 3 7 6 2 2 3 3 1 4 5 4 5 6 8 10 11 12 14 14 10 5 6 7 7 8 7 7 8 8 8 7 3 4 6 10 12 15 18 19 20 21 20 20 24 28 30 32 34
10 9 8 6 6 9 10 11 9 5 4 5 4 4 5 5 6 5 4 8 7 3 3 4 4 4 5 7 7 4 4 5 3 5 6 4 3 3 1 2 4 4 3 1 1 1 2 0 3 3 3 4 3 6 10 12 13 15 13 9 5 4 4 4 5 6 6 8 10 9 7 4 4 6 9 11 14 17 17 17 18 19 21 24 25 26 29 32
8 9 9 5 4 6 6 5 6 5 3 4 5 6 5 4 7 6 3 8 12 6 4 4 4 4 4 5 3 1 3 4 3 7 9 8 7 9 9 8 6 3 0 0 1 0 2 1 1 1 1 3 3 5 8 9 9 9 7 5 6 6 5 5 6 7 7 5 5 5 3 4 6 4 5 6 9 12 15 17 18 19 21 24 25 25 27 28
Wind_Direction
353 355 356 357 356 354 353 351 350 348 345 343 340 338 335 332 329 326 325 322 322 322 325 327 320 321 324 321 321 324 319 305 291 268 251 222 196 191 186 181 174 182 185 177 179 182 185 184 180 179 180 193 220 230 228 227 208 191 184 192 213 224 213 233 203 130 107 119 130 124 132 141 139 157 166 158 146 129 134 141 151 165 153 151 153 152 152 151
351 351 353 354 354 353 352 349 348 346 344 342 339 337 334 332 331 329 326 320 317 318 321 322 316 317 322 320 321 331 328 308 292 273 257 210 194 189 183 181 178 182 186 180 180 183 183 183 181 178 185 205 223 224 226 218 195 182 163 192 224 213 219 192 139 122 118 137 143 131 126 130 136 149 159 159 131 135 144 139 151 153 140 146 152 151 152 151
351 349 349 351 352 352 351 348 346 345 342 340 337 335 333 331 331 331 329 321 315 315 317 317 313 316 321 319 322 334 330 311 302 287 202 141 184 190 188 183 180 185 188 181 182 186 180 175 176 177 189 218 228 228 230 217 197 197 198 226 239 207 231 144 134 124 130 136 131 124 119 124 140 150 156 153 136 152 166 163 174 156 143 149 153 153 155 154
350 348 348 348 349 349 349 346 342 341 340 338 335 333 331 330 331 332 330 323 315 314 314 314 311 316 319 319 329 338 340 334 23 94 85 73 114 181 194 188 181 185 187 181 187 184 168 163 174 179 191 225 236 238 240 228 206 191 196 227 233 183 205 152 133 128 134 134 131 133 134 144 150 157 171 163 148 175 189 183 179 157 151 154 154 157 159 157
349 347 346 345 347 347 346 344 340 337 337 336 334 331 330 330 330 330 330 325 317 314 313 312 311 315 318 323 337 341 357 24 102 105 72 50 74 157 191 193 183 183 186 183 189 184 173 178 189 194 200 226 238 238 242 232 219 200 212 226 219 170 185 159 139 137 140 137 135 138 149 165 153 168 189 178 169 198 191 185 169 157 157 157 157 159 161 160
346 346 344 343 344 344 343 342 338 334 334 334 332 331 331 329 329 329 329 325 319 317 315 312 311 315 320 329 343 344 12 96 132 106 68 55 62 119 185 196 187 180 184 185 189 187 186 191 201 209 208 226 231 228 244 234 224 236 241 232 217 202 187 155 150 147 145 140 142 152 156 157 158 185 191 189 201 200 186 179 166 160 160 159 159 161 162 163
344 343 342 341 341 341 340 340 337 333 331 333 331 330 330 328 327 327 329 327 321 320 317 312 312 318 326 333 348 345 285 228 123 88 63 44 24 18 177 192 190 184 185 187 190 190 193 198 206 218 220 231 231 235 251 248 238 239 257 251 216 208 185 159 162 155 151 150 152 155 150 157 174 184 184 194 204 200 181 171 167 163 161 160 160 163 165 165
342 340 340 339 338 338 337 337 336 333 330 331 330 328 329 327 325 326 329 328 322 321 315 311 316 320 330 334 344 331 298 106 110 72 26 338 347 255 179 186 189 189 189 189 189 188 194 201 209 217 228 237 230 232 246 257 253 241 248 254 219 194 168 161 167 157 153 153 152 152 149 168 176 165 177 199 203 188 165 160 164 162 161 163 163 165 165 165
340 339 338 336 335 335 334 335 334 333 329 329 329 326 327 325 323 326 327 326 321 317 311 310 316 318 327 330 339 338 119 106 116 60 358 336 348 265 205 192 191 192 190 189 190 191 196 205 211 209 228 251 245 246 253 251 249 251 245 249 220 162 159 163 164 158 154 151 154 153 150 167 167 154 183 199 190 172 160 157 162 162 162 166 166 166 165 165
337 336 336 334 333 333 332 332 332 332 329 327 328 325 325 322 321 325 322 321 315 314 313 314 319 317 317 285 221 115 123 103 119 8 330 318 340 305 223 204 200 197 192 190 191 195 198 200 204 212 247 262 255 261 260 243 264 282 279 278 223 161 166 165 159 158 152 152 161 157 149 164 162 163 200 185 177 169 159 156 160 163 165 168 168 168 166 165
336 335 335 333 331 330 330 330 330 330 328 327 326 323 322 317 319 321 317 313 309 316 321 322 325 321 324 222 208 175 123 92 360 303 298 291 332 329 217 205 204 203 195 191 192 194 195 194 201 231 275 271 267 266 264 267 297 302 295 300 225 162 163 157 156 160 150 156 171 150 123 152 149 191 208 160 168 168 156 154 161 166 170 170 169 170 169 166
337 336 336 334 331 330 330 329 328 328 329 327 324 322 320 315 316 313 309 307 303 317 328 337 339 333 341 262 225 175 108 99 300 294 276 264 347 41 196 203 205 207 198 192 191 192 195 200 211 243 268 285 298 279 286 307 323 322 309 301 166 147 154 160 163 165 156 164 168 136 88 166 158 214 202 157 162 165 158 157 164 172 173 172 170 170 172 170
341 340 339 337 333 332 331 330 328 328 329 327 323 322 318 317 313 302 300 298 293 312 335 355 1 344 319 275 214 116 72 189 169 233 245 234 225 52 50 154 178 199 199 193 189 190 197 207 227 250 266 275 287 286 300 316 325 326 315 284 152 124 164 177 171 170 167 166 165 143 79 238 216 218 197 160 160 160 158 161 169 179 174 172 173 170 173 174
347 345 343 341 337 336 336 333 330 329 330 328 323 321 320 323 311 290 294 292 282 308 352 7 4 344 308 262 166 120 104 137 154 185 213 210 210 213 169 136 149 164 198 196 190 194 203 225 255 267 274 264 274 301 302 315 327 323 323 316 176 139 196 186 172 173 169 170 173 157 73 213 217 219 197 170 165 158 157 164 175 181 173 173 176 170 173 176
352 350 348 346 342 341 341 337 333 331 332 329 324 326 323 319 307 281 296 308 289 310 16 357 341 337 309 268 191 177 161 148 163 158 161 169 194 202 180 165 201 186 200 200 197 202 213 242 269 271 270 262 286 321 315 325 333 338 10 320 288 171 227 188 176 180 163 168 185 178 79 200 205 208 190 175 174 165 162 168 174 176 170 175 178 172 175 178
356 353 350 348 346 345 345 341 336 333 335 332 329 333 321 311 309 290 306 321 312 314 2 332 313 323 311 273 192 194 224 188 177 180 170 162 196 204 189 165 186 198 200 199 201 209 227 258 277 271 260 257 283 304 349 339 324 353 144 251 279 211 240 194 179 186 169 155 194 209 192 179 191 194 182 175 178 172 168 169 171 173 172 176 179 175 176 178
356 353 350 348 348 347 347 346 339 336 341 342 336 338 331 317 314 303 303 322 320 300 291 291 282 295 287 221 180 218 244 191 169 229 194 197 208 206 201 182 181 191 198 198 208 226 248 258 268 268 248 219 218 159 35 305 280 321 246 224 264 210 224 233 176 185 176 157 188 216 217 188 174 178 177 177 178 172 172 173 171 174 175 179 182 178 177 178
353 351 348 346 348 347 348 348 340 340 356 2 353 348 346 336 329 310 332 341 327 298 293 261 243 296 253 202 338 305 199 181 142 159 194 219 210 199 203 191 180 180 193 207 221 232 240 242 231 259 237 205 234 164 160 227 215 246 250 243 281 273 246 241 214 173 175 171 184 202 216 200 166 168 176 179 176 173 176 176 173 175 177 179 182 182 181 181
349 348 345 343 346 346 348 349 342 347 8 17 13 1 349 351 11 95 350 337 318 289 298 228 210 278 293 289 321 330 201 209 289 186 183 196 186 195 208 199 183 176 178 194 217 219 213 224 204 209 238 210 225 188 172 223 222 228 253 261 274 285 267 247 259 173 171 179 189 192 197 181 167 170 177 179 177 176 178 175 173 177 179 179 181 183 185 184
345 343 342 341 344 346 348 350 345 349 2 11 17 20 17 11 22 347 333 324 301 290 290 267 258 278 290 297 312 323 281 250 272 267 219 184 177 196 205 185 175 175 170 157 196 208 195 199 219 213 223 209 225 209 187 233 257 268 282 291 284 277 277 263 273 189 170 179 196 191 184 172 173 177 177 178 179 179 178 175 175 178 180 181 181 182 185 188
341 340 340 340 342 347 348 346 342 344 351 360 10 22 25 18 15 330 335 322 300 298 288 279 272 271 276 281 288 309 311 276 266 261 226 200 190 187 194 177 151 174 186 177 181 198 188 199 228 221 224 213 224 219 206 231 248 262 266 277 283 267 274 269 272 240 179 186 199 188 180 178 178 178 178 178 181 184 180 177 178 179 179 182 183 181 183 186
339 337 338 338 340 346 348 337 322 331 348 3 14 19 12 11 360 327 335 315 294 294 284 273 265 265 269 271 272 285 287 275 279 263 206 187 186 186 184 170 154 192 199 191 180 171 188 220 233 223 221 218 232 229 220 230 234 248 246 253 270 258 278 275 268 267 188 196 194 182 181 187 184 176 178 182 183 186 184 182 182 180 178 180 183 182 181 183
338 335 336 336 337 343 345 326 290 303 342 12 22 21 14 2 334 322 324 304 289 293 285 259 249 261 264 256 249 246 238 225 286 270 217 180 178 190 181 164 187 196 186 195 179 158 188 236 229 220 216 213 228 233 224 230 232 237 232 236 259 254 266 270 271 359 326 246 190 181 181 180 177 175 183 188 185 184 186 186 186 183 181 181 183 183 182 183
337 335 334 334 333 337 343 321 265 280 325 21 27 22 17 360 337 330 325 291 283 292 277 236 234 259 258 242 232 217 202 235 261 226 198 173 159 177 187 177 188 194 195 200 194 184 200 234 227 217 220 217 223 235 227 226 239 239 228 223 244 254 248 245 270 327 327 296 178 156 136 67 177 186 192 188 185 184 186 186 187 188 186 184 184 184 184 186
337 335 333 333 331 330 336 320 251 264 305 40 28 14 11 1 351 344 339 318 285 285 255 219 225 247 239 221 226 209 34 274 252 187 187 159 145 162 203 189 183 207 214 200 197 200 223 237 229 205 220 229 225 234 225 210 228 250 235 221 230 247 251 252 273 306 340 335 139 128 118 269 220 200 194 178 182 188 186 184 186 188 186 184 184 185 187 188
336 334 331 331 331 328 335 332 268 269 275 33 1 337 338 343 347 346 349 47 317 269 187 194 204 224 215 188 206 190 19 296 186 174 186 151 159 186 9 305 243 218 216 198 199 198 220 233 227 195 207 220 225 239 231 204 204 246 240 222 226 241 255 261 276 279 223 312 183 131 133 207 250 225 208 186 185 188 186 188 187 187 187 185 185 187 187 188
336 332 329 330 332 328 332 346 319 312 342 306 310 323 324 318 334 338 349 54 332 237 151 172 176 211 209 154 151 139 107 277 134 153 170 148 216 201 161 278 309 279 292 39 204 220 217 230 231 213 205 207 216 235 231 200 181 238 247 232 236 254 265 263 267 261 222 190 283 110 125 132 209 221 213 194 186 189 193 197 192 191 191 189 188 188 188 188
335 329 324 329 332 322 321 339 355 25 37 310 308 335 344 332 338 343 60 75 332 209 128 173 156 156 166 131 159 176 200 248 128 145 185 167 190 156 173 240 213 247 291 64 202 261 261 225 238 226 216 211 209 221 227 208 186 233 251 244 240 251 266 284 292 277 266 236 297 291 133 125 234 221 196 187 186 195 204 203 198 195 193 192 191 191 190 190
335 327 322 328 329 314 314 332 357 12 357 325 324 347 5 353 351 18 91 81 85 190 145 171 153 151 162 137 201 209 228 240 197 199 211 206 198 188 224 241 210 247 276 190 215 260 266 289 289 265 210 214 205 215 217 206 206 228 243 247 245 252 272 353 36 336 354 241 240 262 173 133 268 238 167 178 195 203 209 205 202 198 195 194 194 193 193 192
336 326 323 330 334 316 318 323 284 314 341 348 1 1 346 343 24 67 62 80 124 234 226 180 180 167 161 114 250 219 218 221 197 190 205 210 199 210 268 269 258 350 315 288 262 258 254 272 278 264 217 239 242 227 208 196 212 227 242 254 264 315 343 31 54 64 30 290 244 249 211 134 262 258 174 181 199 204 208 202 199 200 197 197 197 196 195 193
336 331 329 338 12 4 354 324 265 313 349 350 359 353 344 7 72 91 69 25 64 318 297 196 236 191 164 160 235 227 208 196 178 162 199 292 155 318 344 334 326 15 6 341 306 291 302 268 260 262 261 269 288 286 227 194 200 198 184 253 261 310 356 16 1 36 105 268 250 242 153 116 170 254 201 198 204 204 205 197 192 196 198 199 199 198 197 196
340 342 340 17 53 46 34 25 279 303 336 336 358 359 8 60 39 89 26 343 338 271 293 247 226 201 187 187 169 188 167 68 63 99 111 59 66 30 33 35 342 11 352 327 332 327 323 301 274 261 263 328 349 329 336 346 68 139 109 84 117 300 353 325 312 305 206 257 251 210 65 104 219 240 208 205 210 209 209 206 198 196 197 199 199 199 198 197
349 2 100 84 63 60 49 49 66 120 74 6 7 2 49 85 36 4 2 344 352 245 303 336 326 13 75 35 28 106 87 56 38 57 49 67 76 53 45 29 12 55 176 357 24 353 330 322 338 310 319 358 357 345 303 317 25 135 154 117 141 151 99 227 259 278 240 270 271 224 91 217 272 266 208 201 209 210 209 211 207 202 199 199 199 199 198 197
4 71 126 52 46 61 50 53 68 83 54 20 16 18 69 76 14 10 26 348 334 332 344 356 332 331 60 42 10 48 50 40 27 46 44 49 53 33 32 20 14 20 98 59 46 3 4 312 348 29 315 332 351 356 303 238 193 239 192 137 133 152 147 196 195 188 235 276 298 333 86 193 228 253 211 194 204 209 209 212 210 206 203 201 200 197 197 198
26 91 69 17 23 50 47 48 52 55 31 17 27 58 67 57 331 357 9 324 329 343 345 350 342 326 13 20 77 48 54 50 10 54 65 63 50 25 28 16 8 6 27 60 12 341 28 261 293 358 303 314 2 345 335 332 294 285 172 119 147 185 155 163 194 182 169 322 315 329 248 215 208 256 254 200 199 204 210 213 207 204 203 198 197 197 197 199
36 58 46 32 32 34 38 50 62 56 26 20 46 65 68 76 326 332 328 314 322 337 341 354 14 19 342 7 34 6 33 62 37 66 83 78 56 29 28 16 7 11 36 73 31 15 26 277 301 335 314 32 6 333 331 352 294 271 32 164 216 192 138 129 272 241 117 120 283 281 256 291 306 292 291 271 222 206 208 212 205 201 197 190 192 198 199 200
21 37 52 49 38 30 38 67 76 55 26 34 71 69 67 38 336 329 340 340 331 344 15 28 16 11 5 20 15 357 13 40 40 52 64 74 46 13 8 12 11 10 14 58 93 88 351 270 311 350 352 7 352 339 7 21 14 59 327 272 267 351 94 115 331 328 67 133 268 257 204 292 312 290 304 301 270 235 206 207 208 198 189 187 194 198 199 200
360 8 35 34 21 22 33 55 52 29 13 37 70 66 65 10 11 18 4 355 350 11 47 60 358 15 39 31 354 358 17 18 13 40 45 65 38 357 356 4 5 7 15 40 63 332 2 292 306 24 31 348 348 359 28 4 7 28 334 312 342 36 16 54 125 204 133 149 265 283 260 263 230 248 309 306 278 286 276 225 218 201 186 189 196 198 199 200
354 1 28 25 14 13 16 21 17 360 15 35 62 53 53 33 25 25 19 11 15 40 48 37 18 33 42 41 5 1 27 36 29 58 58 51 29 353 1 2 350 4 27 51 53 308 22 10 282 7 28 349 347 24 29 343 350 3 2 358 4 172 188 193 177 172 156 174 218 308 317 301 250 285 336 346 332 337 336 278 225 209 196 194 197 199 199 197
2 6 36 43 32 2 334 329 339 358 49 54 89 46 39 45 24 23 27 28 22 37 45 22 29 40 30 35 26 2 30 45 42 66 55 37 70 14 6 4 345 351 25 51 45 354 25 44 288 315 1 14 56 33 18 351 339 347 5 10 358 339 309 153 239 183 141 157 169 162 274 292 348 345 1 6 358 352 346 324 239 211 199 197 200 199 197 195
15 2 40 62 37 356 328 312 323 100 106 40 47 48 47 46 24 20 30 35 32 34 53 58 49 52 33 35 31 1 26 52 49 68 61 36 58 30 5 9 6 358 14 38 38 13 13 40 321 320 340 8 83 5 329 315 310 18 37 19 9 353 353 35 319 286 127 148 165 168 218 199 27 356 1 7 358 358 357 348 291 216 198 197 202 199 196 194
17 360 24 23 340 340 352 337 336 93 120 60 53 52 52 47 31 20 25 34 35 29 40 51 48 49 39 40 43 19 36 57 47 66 80 53 52 37 13 20 27 37 42 48 12 356 8 48 340 318 284 273 259 254 311 348 32 75 51 16 10 7 7 40 283 297 338 335 167 138 197 198 49 3 1 1 1 10 10 2 347 274 205 200 200 198 197 197
6 355 22 20 340 344 28 34 6 12 65 78 69 58 53 52 40 33 28 29 30 22 31 34 29 42 38 32 43 36 36 50 43 58 88 71 52 37 23 24 28 33 35 52 330 344 2 41 348 322 292 288 249 183 76 44 48 55 30 7 5 353 338 311 243 258 353 352 360 34 211 238 354 4 0 357 3 16 18 12 7 7 356 222 205 196 194 196
1 359 26 35 38 42 53 65 26 28 51 76 82 72 61 56 40 41 39 26 20 19 36 29 28 43 40 38 52 46 37 56 48 41 61 78 55 41 30 25 29 34 30 32 2 346 3 59 33 2 327 326 3 65 26 21 29 23 344 346 352 341 335 329 293 337 58 17 356 332 218 287 341 351 356 360 7 16 21 18 15 15 13 357 223 204 199 197
9 7 21 41 59 58 54 68 76 73 49 56 77 75 66 60 41 42 44 32 31 42 54 39 42 52 46 41 53 46 42 68 68 27 46 60 56 43 30 21 27 38 39 34 28 27 76 98 87 88 338 292 312 360 336 329 343 343 323 337 353 348 343 339 338 15 28 335 338 291 229 321 334 346 352 356 9 18 22 20 17 15 17 21 40 183 192 194
26 24 358 27 48 45 44 53 57 59 36 45 58 35 42 70 39 39 41 37 42 51 58 50 46 54 45 38 51 39 29 52 67 58 59 45 48 36 24 24 34 39 41 34 23 22 104 90 110 146 178 237 256 265 274 288 299 306 317 336 348 339 334 336 349 358 331 324 316 242 131 349 335 339 345 344 2 22 29 26 18 15 17 23 36 60 69 60
47 33 351 356 26 27 32 46 48 42 35 53 57 8 33 46 30 29 28 28 41 48 50 43 40 47 38 34 57 39 16 38 50 42 50 54 150 78 28 36 47 38 32 28 19 25 95 32 17 167 209 247 261 281 292 293 292 296 307 320 330 326 329 339 331 304 320 342 300 272 9 2 323 318 335 342 358 24 40 38 26 17 17 19 25 39 51 52
53 23 21 30 25 9 16 40 49 45 36 47 58 32 38 41 30 22 11 14 35 42 44 41 37 46 47 39 62 41 18 34 30 9 5 20 14 29 23 32 51 40 29 19 16 40 107 337 315 23 322 303 309 315 312 304 299 301 302 301 308 315 318 315 301 296 311 300 263 282 329 345 309 317 344 357 4 30 52 54 45 26 18 19 24 28 33 35
45 23 27 41 52 36 39 51 54 49 35 34 45 46 47 42 27 16 8 8 20 31 47 58 23 33 51 52 64 54 27 40 25 358 2 9 0 7 6 353 34 42 35 23 11 35 90 322 327 359 344 325 329 322 319 326 324 317 316 315 303 292 290 288 287 289 288 270 258 287 330 334 302 334 17 19 12 32 51 53 54 41 23 23 27 26 24 25
47 23 9 25 33 32 48 58 56 48 36 32 40 38 44 49 29 1 13 36 16 7 39 59 36 30 44 52 62 70 59 78 69 359 5 20 3 5 18 344 3 22 23 22 360 45 88 311 326 4 355 322 327 328 329 337 331 317 315 321 311 283 274 272 277 284 288 286 283 300 323 311 296 358 38 44 33 37 43 45 52 50 35 31 32 27 22 22
66 47 17 14 20 21 43 60 59 65 37 18 38 38 35 55 33 354 5 25 14 353 26 57 82 58 36 47 59 64 43 47 42 347 348 355 325 305 303 312 322 339 352 334 308 69 111 295 334 29 359 303 323 341 333 333 328 312 305 312 315 288 274 282 294 301 302 301 303 313 323 292 294 356 37 54 49 45 40 36 45 52 43 38 39 32 22 19
82 67 47 53 54 32 49 63 51 67 55 17 46 54 53 55 17 13 42 3 354 4 15 19 86 91 59 67 76 57 28 20 345 329 327 315 304 293 277 282 308 342 42 209 360 42 150 149 351 29 299 290 337 347 332 337 332 301 281 301 316 316 324 332 324 316 322 330 321 321 323 286 294 343 46 56 49 51 46 36 38 47 47 41 41 36 22 14